TimeEST,TemperatureF,Dew PointF,Humidity,Sea Level PressureIn,VisibilityMPH,Wind Direction,Wind SpeedMPH,Gust SpeedMPH,PrecipitationIn,Events,Conditions,WindDirDegrees,DateUTC
12:53 AM,25.0,21.9,88,30.04,10.0,NNE,11.5,-,N/A,,Overcast,30,2013-03-02 05:53:00
1:04 AM,24.8,21.2,86,30.02,9.0,NNE,10.4,-,N/A,,Overcast,20,2013-03-02 06:04:00
1:27 AM,24.8,21.2,86,30.02,10.0,NNE,9.2,-,N/A,,Overcast,30,2013-03-02 06:27:00
1:34 AM,26.6,21.2,80,30.01,10.0,NNE,12.7,-,N/A,,Overcast,20,2013-03-02 06:34:00
1:53 AM,25.0,19.0,78,30.04,10.0,North,11.5,-,N/A,,Overcast,10,2013-03-02 06:53:00
2:53 AM,25.0,19.9,81,30.03,10.0,NNE,9.2,-,N/A,,Overcast,20,2013-03-02 07:53:00
4:53 AM,25.0,19.9,81,30.01,6.0,NNE,13.8,-,0.00,Snow,Light Snow,20,2013-03-02 09:53:00
5:53 AM,25.0,19.9,81,30.02,10.0,North,13.8,-,0.00,,Overcast,360,2013-03-02 10:53:00
7:11 AM,23.0,21.2,93,30.00,3.0,North,10.4,-,0.00,Snow,Light Snow,360,2013-03-02 12:11:00
7:25 AM,24.8,19.4,80,30.00,2.5,North,9.2,-,0.00,Snow,Light Snow,350,2013-03-02 12:25:00
7:53 AM,24.1,21.9,91,30.02,2.5,North,6.9,-,0.00,Snow,Light Snow,350,2013-03-02 12:53:00
8:05 AM,24.8,21.2,86,30.00,1.8,North,6.9,-,0.00,Snow,Light Snow,350,2013-03-02 13:05:00
8:16 AM,24.8,21.2,86,30.00,1.5,North,5.8,-,0.00,Snow,Light Snow,360,2013-03-02 13:16:00
8:30 AM,24.8,21.2,86,30.00,2.5,NNE,5.8,-,0.00,Snow,Light Snow,20,2013-03-02 13:30:00
8:37 AM,24.8,21.2,86,30.00,1.0,North,5.8,-,0.00,Snow,Light Snow,10,2013-03-02 13:37:00
8:53 AM,25.0,21.9,88,30.03,2.0,North,8.1,-,0.00,Snow,Light Snow,10,2013-03-02 13:53:00
8:57 AM,24.8,21.2,86,30.00,1.8,North,6.9,-,0.00,Snow,Light Snow,10,2013-03-02 13:57:00
9:05 AM,24.8,21.2,86,30.00,2.0,North,6.9,-,0.00,Snow,Light Snow,360,2013-03-02 14:05:00
9:19 AM,24.8,21.2,86,30.00,4.0,North,4.6,-,0.00,Snow,Light Snow,10,2013-03-02 14:19:00
9:43 AM,24.8,21.2,86,30.00,4.0,NNE,9.2,-,0.00,,Overcast,30,2013-03-02 14:43:00
9:51 AM,26.6,21.2,80,30.01,4.0,NNE,10.4,-,0.00,,Overcast,30,2013-03-02 14:51:00
9:53 AM,26.1,21.9,84,30.03,3.0,NNE,9.2,-,0.00,,Overcast,20,2013-03-02 14:53:00
10:05 AM,24.8,21.2,86,30.01,1.5,NNE,11.5,-,0.00,Snow,Light Snow,20,2013-03-02 15:05:00
10:25 AM,26.6,21.2,80,30.00,1.2,North,10.4,-,0.00,Snow,Light Snow,360,2013-03-02 15:25:00
10:43 AM,24.8,21.2,86,30.01,4.0,North,6.9,-,0.00,Snow,Light Snow,10,2013-03-02 15:43:00
10:53 AM,25.0,21.9,88,30.03,4.0,North,8.1,-,0.00,Snow,Light Snow,10,2013-03-02 15:53:00
11:22 AM,26.6,23.0,86,30.01,4.0,North,8.1,-,0.00,Snow,Light Snow,360,2013-03-02 16:22:00
11:53 AM,25.0,21.0,85,30.03,10.0,NNE,6.9,-,0.00,,Overcast,20,2013-03-02 16:53:00
12:53 PM,26.1,21.9,84,30.02,9.0,NNW,5.8,-,0.00,Snow,Light Snow,330,2013-03-02 17:53:00
1:31 PM,26.6,23.0,86,29.99,5.0,North,5.8,-,0.00,Snow,Light Snow,360,2013-03-02 18:31:00
1:53 PM,27.0,23.0,85,30.01,6.0,North,5.8,-,0.01,Snow,Light Snow,360,2013-03-02 18:53:00
2:04 PM,26.6,23.0,86,29.99,6.0,NNW,5.8,-,0.00,Snow,Light Snow,340,2013-03-02 19:04:00
2:53 PM,27.0,23.0,85,30.01,9.0,NNW,3.5,-,0.00,,Overcast,340,2013-03-02 19:53:00
3:53 PM,27.0,24.1,89,30.01,10.0,NW,6.9,-,N/A,,Overcast,320,2013-03-02 20:53:00
4:53 PM,27.0,23.0,85,30.00,10.0,NNW,9.2,-,N/A,,Overcast,330,2013-03-02 21:53:00
5:53 PM,27.0,24.1,89,30.01,9.0,NNW,13.8,-,N/A,,Overcast,340,2013-03-02 22:53:00
6:53 PM,27.0,23.0,85,30.02,10.0,NNW,16.1,-,N/A,,Overcast,340,2013-03-02 23:53:00
8:53 PM,27.0,23.0,85,30.03,10.0,NNW,15.0,-,0.01,,Overcast,340,2013-03-03 01:53:00
9:53 PM,27.0,21.9,81,30.03,10.0,NNW,15.0,-,N/A,,Overcast,330,2013-03-03 02:53:00
10:32 PM,26.6,21.2,80,30.00,10.0,NNW,13.8,-,N/A,,Overcast,340,2013-03-03 03:32:00
10:53 PM,26.1,19.9,78,30.02,10.0,NNW,13.8,-,N/A,,Overcast,340,2013-03-03 03:53:00
11:53 PM,25.0,19.9,81,30.02,9.0,NNW,11.5,-,0.00,,Overcast,340,2013-03-03 04:53:00